www.pogodaiklimat.ru

Погода и климат >> Архив погоды >> Беларусь >> Минск


АРХИВ ПОГОДЫ в Минске

Время (UTC), дата Ветер
(напр.,м/с)
 
Видим.   Явления Облачность Т
(С)
Тd
(С)
f
(%)
Тe
(С)
Тes
(С)
Комфортность P
(гПа)
Po
(гПа)
Тmin
(С)
Tmax
(С)
R
(мм)
R24
(мм)
S
(см)
21 17.05 СВ 2 10 км 3/0
[Ci fib]
+15.4 +12.3 82 +15 +15 тепло 1018.6 991.3
00 18.05 СВ 2 10 км 6/0
[Ac trans]
+13.0 +11.4 90 +12 +12 тепло 1018.8 991.3
03 18.05 В 2 10 км 6/0
[Ac trans]
+12.5 +10.6 88 +12 +12 по сезону 1019.1 991.5
06 18.05 В 2 20 км 6/0
[Ac trans]
+17.1 +10.0 63 +17 +22 тепло 1018.3 991.2 +11.1
09 18.05 В 4 25 км 6/0
[Ci fib]
+21.6 +7.4 40 +23 +31 комфорт 1017.3 990.6
12 18.05 В 3 25 км 8/0
[Ac trans]
+23.3 +7.0 35 +24 +30 комфорт 1015.8 989.3
15 18.05 ЮВ 3 20 км 6/0
[Ci fib]
+23.7 +6.0 32 +24 +27 комфорт 1014.7 988.2
18 18.05 СВ 1 15 км 8/0
[Ac trans Ci fib]
+16.9 +9.6 62 +18 +18 тепло 1015.3 988.2 +24.3
21 18.05 СВ 1 12 км 4/0
[Ci fib]
+12.2 +8.9 80 +12 +12 по сезону 1016.0 988.5
00 19.05 СВ 1 14 км ясно +10.9 +8.1 83 +11 +11 по сезону 1016.0 988.4
03 19.05 СВ 1 15 км 6/0
[Ci fib]
+9.1 +7.7 91 +8 +9 прохладно 1016.5 988.7
06 19.05 ЮВ 2 16 км 6/0
[Ci fib]
+18.9 +7.7 48 +20 +26 тепло 1015.8 988.9 +8.3
09 19.05 В 3 20 км 6/0
[Ci fib]
+22.5 +6.7 36 +23 +34 комфорт 1015.6 989.0
12 19.05 ЮВ 4 20 км 6/0
[Ci fib]
+24.7 +6.9 32 +25 +33 комфорт 1014.5 988.1
15 19.05 ЮВ 3 21 км 4/0
[Ci fib]
+25.0 +6.2 30 +25 +28 комфорт 1014.0 987.7
18 19.05 В 2 15 км 3/0
[Ci fib]
+21.1 +7.0 40 +22 +22 комфорт 1014.5 987.8 +25.5
21 19.05 В 2 14 км 8/0
[Ci fib]
+16.4 +8.9 61 +17 +17 тепло 1015.4 988.3
00 20.05 В 1 12 км 4/0
[Ci fib]
+16.1 +8.1 59 +17 +17 тепло 1015.6 988.5
03 20.05 ЮВ 3 15 км 6/0
[Ac trans]
+15.9 +8.2 60 +16 +16 тепло 1016.0 988.8
06 20.05 ЮВ 3 20 км 3/0
[Ac trans]
+20.6 +8.9 47 +22 +27 комфорт 1015.4 988.7 +15.1
09 20.05 Ю 4
{10}
20 км 4/0
[Ci sp]
+24.5 +9.3 38 +25 +34 комфорт 1015.2 988.8
12 20.05 ЮВ 5 15 км 6/6 1080 м
[Cu hum Ci sp]
+25.9 +9.3 35 +26 +29 жарко 1014.3 988.1
15 20.05 В 4
{10}
20 км 6/0
[Ac trans]
+25.5 +8.9 35 +26 +28 жарко 1013.0 986.8
18 20.05 В 3 10 км 8/0
[Ac trans]
+22.1 +8.9 43 +23 +23 комфорт 1013.2 986.7 +26.5
21 20.05 В 3 20 км 4/0
[Ci sp]
+19.4 +7.5 46 +20 +20 тепло 1013.2 986.4
00 21.05 В 3 20 км 3/0
[Ci sp]
+17.5 +7.3 51 +18 +18 тепло 1012.7 985.8
03 21.05 В 2 20 км 8/0
[Ac trans]
+15.9 +7.7 58 +16 +16 тепло 1013.0 985.9
06 21.05 ЮВ 2 20 км 8/4 1080 м
[Cu hum Ac trans Ci fib]
+19.4 +9.0 51 +21 +24 комфорт 1012.6 985.8 +15.6
09 21.05 В 3 20 км 8/0
[Ci fib]
+23.4 +11.5 47 +26 +36 жарко 1011.6 985.2
12 21.05 ЮВ 4
{12}
18 км 9/4 1000 м
[Cu hum Cs]
+24.5 +10.4 41 +26 +30 жарко 1010.5 984.3
15 21.05 ЮВ 4
{10}
20 км 9/0
[Ci fib]
+23.7 +10.7 44 +25 +28 комфорт 1009.3 983.0
18 21.05 ЮВ 3
{11}
15 км в посл. час ливневой дождь 8/4 1300 м
[Cb cap Ac trans]
+18.2 +11.7 66 +19 +19 тепло 1010.2 983.4 +25.5 0.0
21 21.05 В 2 15 км 6/0
[Ci fib]
+16.6 +10.7 68 +17 +17 тепло 1010.1 983.2
00 22.05 В 1 13 км 6/0
[Ci fib]
+14.2 +10.2 77 +15 +15 тепло 1009.0 981.9
03 22.05 В 1 15 км 6/0
[Ci fib]
+12.1 +10.2 88 +12 +12 по сезону 1009.6 982.3
06 22.05 Ю 2 20 км 4/0
[Ci fib]
+17.9 +11.0 64 +18 +25 тепло 1009.1 982.3 +11.8
09 22.05 ЮВ 3 12 км 4/4 1020 м
[Cu med, cong]
+21.9 +9.8 46 +23 +31 комфорт 1008.4 982.0
12 22.05 Ю 2 14 км 6/6 1000 м
[Cu med, cong]
+24.0 +8.8 38 +25 +30 комфорт 1007.8 981.6
15 22.05 Ю 2 15 км 4/4 960 м
[Cu med, cong]
+23.9 +9.5 40 +25 +28 комфорт 1007.0 980.8
18 22.05 СЗ 1 12 км 6/0
[Ci fib]
+18.5 +11.1 62 +20 +20 тепло 1007.9 981.2 +24.5
21 22.05 штиль 0 10 км ясно +11.8 +10.2 90 +11 +11 по сезону 1008.7 981.4
00 23.05 штиль 0 10 км ясно +10.4 +10.2 99 +10 +10 по сезону 1008.6 981.3
03 23.05 штиль 0 13 км 4/0
[Ci fib]
+10.0 +9.2 95 +9 +10 прохладно 1008.9 981.4
06 23.05 С 1 17 км 3/0
[Ci fib]
+20.4 +11.3 56 +23 +31 комфорт 1008.0 981.5 +9.5
09 23.05 З 2 19 км 8/6 1080 м
[Cu hum Ac trans]
+23.7 +9.7 41 +25 +29 комфорт 1008.1 981.8
12 23.05 З 3 20 км 6/6 960 м
[Cu med, cong]
+25.0 +8.9 36 +26 +30 жарко 1007.2 981.1
15 23.05 З 3 15 км 4/3 600 м
[Cu med, cong Ac trans]
+25.3 +7.4 32 +25 +28 комфорт 1006.5 980.4
18 23.05 СЗ 1 14 км 3/0
[Ac trans Ci fib]
+19.5 +11.0 58 +22 +22 комфорт 1007.5 980.9 +26.0
21 23.05 С 1 12 км ясно +14.2 +11.2 82 +15 +15 тепло 1008.9 981.8
00 24.05 СЗ 1 19 км 6/0
[Ci fib]
+12.8 +11.0 89 +13 +13 тепло 1008.8 981.6
03 24.05 СЗ 2 15 км 8/0
[Ac trans Ci fib]
+14.0 +12.0 88 +13 +14 по сезону 1009.5 982.4
06 24.05 СЗ 2 20 км 8/0
[Ci fib]
+19.6 +13.5 68 +22 +28 комфорт 1009.2 982.6 +11.5
09 24.05 СЗ 2 20 км 6/4 600 м
[Cu hum Ci sp]
+22.3 +13.6 58 +25 +34 комфорт 1009.1 982.7
12 24.05 З 3 20 км 8/6 600 м
[Cu hum Ci fib]
+24.3 +12.9 49 +26 +30 жарко 1007.6 981.4
15 24.05 СЗ 2 20 км 8/6 1000 м
[Cu hum Ci fib]
+25.1 +11.3 42 +26 +28 жарко 1006.8 980.7
18 24.05 В 2 10 км гроза без осадков 10/10 900 м
[Cb cap]
+17.2 +13.3 78 +18 +18 тепло 1008.5 981.7 +26.0

 

Местоположение метеостанции Минск (город Минск, Беларусь): широта 53.96 долгота 27.70 высота над уровнем моря 231 м.

В архиве по умолчанию представлена погода в Минске за последнюю неделю. Архивные данные за месяц целиком и за предыдущие месяцы, начиная с января 2011 года, Вы можете получить, выбрав интересующий диапазон дат из раскрывающегося списка и нажав кнопку "Ввод!".


*Определитесь, кто Вы:
робот инопланетянин человек

Внимание! Время в таблицах - всемирное. Для получения местного времени необходимо прибавить поправку, которая равна 3 ч.

Смотрите также архив погоды в соседних городах и на ближайших метеорологических станциях:

Погода в Борисове (Минская область, Беларусь) (63 км)
Погода в Марьиной Горке (Минская область, Беларусь) (63 км)
Погода в Вилейке (Минская область, Беларусь) (77 км)
Погода в Воложине (Минская область, Беларусь) (78 км)
Погода в Столбцах (Минская область, Беларусь) (83 км)
Погода в Березино (Минская область, Беларусь) (86 км)
Погода в Березинском Заповеднике (Минская область, Беларусь) (95 км)
Погода в Докшицах (Витебская область, Беларусь) (102 км)
Погода в Слуцке (Минская область, Беларусь) (104 км)
Погода в Кличеве (Могилевская область, Беларусь) (118 км)

Пояснения к столбцам:

Ветер - указаны скорость ветра в м/с - средняя за 10 мин, порывы в срок и между сроками (в фигурных скобках) и направление, откуда дует ветер: С - северный, СВ - северо-восточный, В - восточный, ЮВ - юго-восточный, Ю - южный, ЮЗ - юго-западный, З - западный, СЗ - северо-западный.
Видимость - горизонтальная дальность видимости в метрах или километрах. При видимости от 1 до 10 км при отсутствии осадков обычно наблюдается дымка, при ухудшении видимости до 1 км и менее - туман. В сухую погоду видимость может ухудшаться дымом, пылью или мглою.
Явления - указаны атмосферные явления, наблюдавшиеся в срок или в последний час перед сроком; фигурными скобками обозначены явления, наблюдавшиеся между сроками (за 1-3 часа до срока); квадратными скобками обозначены град или гололедные отложения с указанием их диаметра в мм.
Облачность - указаны через наклонную черту общая и нижняя облачность в баллах и высота нижней границы облаков в метрах; квадратными скобками обозначены формы облаков: Ci - перистые, Cs - перисто-слоистые, Cc - перисто-кучевые, Ac - высококучевые, As - высокослоистые, Sc - слоисто-кучевые, Ns - слоисто-дождевые, Cu - кучевые, Cb - кучево-дождевые. Подробнее классификацию облаков см. в Атласе облаков (PDF).
T - Температура воздуха - температура, измеренная на высоте 2 м над землей.
Td - Температура точки росы - температура, при понижении до которой содержащийся в воздухе водяной пар достигнет насыщения.
f - Относительная влажность воздуха - влажноcть воздуха, измеренная на высоте 2 м над землей.
Te - Эффективная температура - температура, которую ощущает одетый по сезону человек в тени. Характеристика душности погоды. При расчете учитывается влияние влажности воздуха и скорости ветра на теплоощущения человека.
Tes - Эффективная температура на солнце - температура, которую ощущает человек, с поправкой на солнечный нагрев. Характеристика знойности погоды. Зависит от высоты солнца над горизонтом, облачности и скорости ветра. Ночью, в пасмурную погоду, а также при ветре 12 м/с и более поправка равна нулю.
P - Атмосферное давление - приведенное к уровню моря атмосферное давление.
Po - Атмосферное давление - измеренное на уровне метеостанции атмосферное давление.
Tmin - Минимальная температура - минимум температуры воздуха на высоте 2 м над землей.
Tmax - Максимальная температура - максимум температуры воздуха на высоте 2 м над землей.
R - Количество осадков - Количество выпавших осадков за период времени, мм. При наведении курсора мыши на число - период времени, за который выпало указанное количество осадков.
R24 - Количество осадков - Количество выпавших осадков за 24 часа, мм.
S - Снежный покров - Высота снежного покрова, см. При наведении курсора мыши на число - состояние снежного покрова и степень покрытия местности в баллах.